Das Wetter in  D-61279 Heinzenberg / Taunus





Wetter Minimum- & Maximum-Werte im August 2010

Standort: Heinzenberg / Taunus - Höhe 297 m         8 24' 1" Ost 50 21' 51" Nord
(   3-stündige Aktualisierung    letzte Aktualisierung um 19:04 am 31.08.2010  )


Messgrösse

Minimum

Maximum

Durchschnitt

Temperatur West /
Luftfeuchte West
Anklicken für Monats-Diagramm

7,6 C

00:43
30.08.2010

31 %

18:21
07.08.2010

31,0 C

17:34
21.08.2010

99 %

08:51
17.08.2010

Temp

16,8 C

Feuchte

79 %

Temperatur Ost /
Luftfeuchte Ost
Anklicken für Monats-Diagramm

7,2 C

00:13
30.08.2010

--

--
--

29,6 C

17:34
21.08.2010

--

--
--

16,5 C

--

Luftdruck Anklicken für Monats-Diagramm

1001,4 hPa

06:50
27.08.2010

1024,7 hPa

07:44
21.08.2010

1013,9 hPa

Taupunkt

6,1 C

12:51
07.08.2010

19,7 C

15:56
23.08.2010

12,7 C

Windchill
( gefühlte Temperatur )

-3,3 C

03:58
30.08.2010

30,6 C

17:34
21.08.2010

14,9 C

Windgeschwindigkeit /
Windrichtung
Anklicken für Monats-Diagramm

---

51,1 km/h / W-SW

15:37
29.08.2010

9,8 km/h
W-SW

Helligkeit /
Sonnenschein
Anklicken für Monats-Diagramm
Anklicken für Monats-Diagramm

Sonnenschein:

146:03 Stunden

Max: 12:15 Std am
20.08.2010

119 klux

11:49
26.08.2010

30 klux

Solarstrahlung Anklicken für Monats-Diagramm

---

814 W/m

11:49
26.08.2010

223 W/m

Regenmenge
    August 2010
Anklicken für Monats-Diagramm

Insgesamt 105,5 l/m

in 64:13 Stunden
an 19 Tagen

23,4 l/m

12:49
15.08.2010

Gesamtmenge

105,5 l/m

Regen-Tage
    August 2010
Anklicken für Monats-Diagramm

>   0 mm/Tag

>   2 mm/Tag

>   5 mm/Tag

> 10 mm/Tag

> 20 mm/Tag

19 Tage     
10 Tage     
9 Tage     
3 Tage     
  1 Tag     

Eisige Tage August 2010 / 2009

Tmin ≤ -10C     

0 Tage

/

0 Tage

Eistage August 2010 / 2009

Tmax <     0C     

0 Tage

/

0 Tage

Frosttage August 2010 / 2009

Tmin ≤     0C     

0 Tage

/

0 Tage

Kalte Tage August 2010 / 2009

Tmax <   10C     

0 Tage

/

0 Tage

Warme Tage August 2010 / 2009

Tmax ≥   20C     

23 Tage

/

31 Tage

Sommertage August 2010 / 2009

Tmax ≥   25C     

7 Tage

/

18 Tage

Heisse Tage August 2010 / 2009

Tmax ≥   30C     

  1 Tag

/

6 Tage


Monatsdiagramm August 2010

Die Kurven zeigen den Durchschnittswert des jeweiligen Tages an


Wetter-Monatsübersicht August 2010
Datum
  Temperatur
   Luftdruck
   Wind
  Regen
   Luftfeuchte
   Helligkeit

Sonnen-
schein


Temp.

Min.
Temp.

Max.
Temp.


Luftdruck

Min.
Luftdruck

Max.
Luftdruck

-Geschw.
Haupt-Richtg.

Max.
Wind

Menge /
Dauer


Feuchte

Min.
Feuchte

Max.
Feuchte


Helligkeit

Max.
Helligkeit

1.
August
20,1 C15,3 C
05:39
28,5 C
17:39
1014,1 hPa1011,6 hPa
17:39
1016,0 hPa
00:04
8,1 km/h
W-SW
33,2 km/h
14:44  
5,2 l/m
3:25 Stunden
75 %44 %
17:34
93 %
07:29
33,0 klux108,0 klux
13:59
4:25 Std 
2.
August
18,7 C14,5 C
06:26
23,7 C
17:26
1014,8 hPa1013,2 hPa
17:26
1016,3 hPa
06:46
4,5 km/h
W-NW
20,9 km/h
16:31  
---
79 %56 %
16:20
97 %
06:56
33 klux86 klux
16:36
3:45 Std 
3.
August
16,7 C12,6 C
23:53
22,7 C
17:02
1015,1 hPa1014,1 hPa
01:12
1016,4 hPa
23:18
6,7 km/h
W-NW
26,5 km/h
17:17  
5,8 l/m
3:15 Stunden
80 %46 %
19:07
96 %
06:42
33,1 klux108,0 klux
12:17
5:50 Std 
4.
August
16,7 C10,4 C
02:58
23,2 C
13:58
1010,8 hPa1006,4 hPa
20:03
1015,8 hPa
02:48
10,2 km/h
W-SW
35,4 km/h
14:18  
---
74 %50 %
15:33
95 %
07:28
29 klux97 klux
13:08
2:45 Std 
5.
August
16,6 C13,8 C
05:29
20,1 C
14:39
1008,4 hPa1005,7 hPa
01:14
1013,2 hPa
23:55
9,6 km/h
W-NW
28,8 km/h
13:24  
1,2 l/m
1:10 Stunden
77 %58 %
17:59
97 %
08:44
28,4 klux109,0 klux
14:44
1:55 Std 
6.
August
15,2 C10,2 C
05:55
19,3 C
11:50
1016,9 hPa1013,2 hPa
00:00
1019,5 hPa
23:56
3,4 km/h
NW
20,0 km/h
14:05  
---
77 %58 %
14:15
94 %
07:40
23 klux97 klux
12:25
2:50 Std 
7.
August
17,3 C8,4 C
06:46
26,4 C
18:01
1018,3 hPa1016,0 hPa
18:01
1021,2 hPa
06:46
5,4 km/h
W
23,3 km/h
16:01  
---
65 %31 %
18:21
95 %
07:36
47,2 klux93,1 klux
12:41
11:40 Std 
8.
August
17,1 C14,3 C
04:42
22,0 C
17:12
1015,9 hPa1014,4 hPa
12:52
1018,4 hPa
23:58
9,8 km/h
W
37,5 km/h
12:57  
2,7 l/m
2:25 Stunden
80 %63 %
17:12
94 %
08:57
35,0 klux113,0 klux
12:57
5:05 Std 
9.
August
17,7 C13,8 C
04:08
24,5 C
18:13
1017,6 hPa1015,1 hPa
18:13
1019,2 hPa
08:58
6,9 km/h
W
27,0 km/h
16:48  
---
76 %45 %
18:18
95 %
06:23
37 klux111 klux
13:33
7:05 Std 
10.
August
19,5 C12,4 C
06:49
26,8 C
17:29
1015,1 hPa1011,9 hPa
19:39
1017,5 hPa
03:49
6,1 km/h
W-SW
25,8 km/h
11:09  
---
67 %39 %
12:29
95 %
08:09
42 klux101 klux
14:04
8:50 Std 
11.
August
19,0 C16,0 C
06:35
24,9 C
17:15
1013,9 hPa1012,1 hPa
17:35
1015,0 hPa
08:30
9,0 km/h
W-SW
32,6 km/h
14:05  
1,4 l/m
3:10 Stunden
78 %57 %
16:30
92 %
07:00
28 klux110 klux
14:10
2:11 Std 
12.
August
18,2 C14,4 C
23:27
22,5 C
18:36
1013,1 hPa1011,4 hPa
13:26
1016,3 hPa
23:27
6,0 km/h
W-NW
23,3 km/h
18:16  
1,8 l/m
1:50 Stunden
81 %53 %
18:41
97 %
05:26
27 klux97 klux
11:31
2:20 Std 
13.
August
16,7 C12,3 C
06:27
23,2 C
13:37
1016,7 hPa1015,3 hPa
13:37
1018,2 hPa
10:37
2,5 km/h
NW
14,5 km/h
15:27  
---
75 %49 %
19:07
94 %
06:57
28,6 klux95,3 klux
13:37
2:25 Std 
14.
August
17,4 C9,0 C
06:38
27,2 C
17:58
1016,2 hPa1013,1 hPa
18:58
1018,9 hPa
07:23
4,2 km/h
NO
20,6 km/h
18:08  
---
71 %37 %
17:28
94 %
06:43
35,6 klux92,7 klux
13:53
6:20 Std 
15.
August
15,7 C13,6 C
23:15
17,4 C
00:04
1010,7 hPa1008,9 hPa
19:14
1014,1 hPa
01:59
7,6 km/h
NO
34,6 km/h
05:39  
23,4 l/m
5:50 Stunden
88 %71 %
00:04
97 %
16:59
4,2 klux11,1 klux
18:19
--- 
16.
August
14,5 C13,1 C
05:35
16,2 C
15:00
1008,9 hPa1007,9 hPa
10:20
1010,2 hPa
00:20
12,5 km/h
W-SW
30,2 km/h
08:20  
0,5 l/m
1:20 Stunden
91 %86 %
10:15
95 %
00:00
11,5 klux68,7 klux
14:55
40 Min 
17.
August
14,3 C12,5 C
18:21
15,9 C
15:11
1009,8 hPa1007,9 hPa
02:41
1012,4 hPa
18:06
19,7 km/h
W
49,9 km/h
16:46  
14,4 l/m
7:30 Stunden
93 %77 %
16:36
99 %
08:51
10,8 klux50,1 klux
12:51
--- 
18.
August
15,8 C13,2 C
02:46
21,1 C
16:07
1008,9 hPa1007,3 hPa
16:07
1011,3 hPa
00:01
14,1 km/h
W-SW
40,6 km/h
16:32  
0,3 l/m
1:20 Stunden
85 %66 %
16:22
94 %
13:37
20,6 klux95,7 klux
15:02
1:30 Std 
19.
August
16,6 C12,3 C
23:58
23,4 C
17:37
1015,9 hPa1011,1 hPa
00:02
1020,7 hPa
23:58
7,3 km/h
W
26,5 km/h
10:32  
---
72 %42 %
17:27
92 %
03:37
44,2 klux100,0 klux
14:12
9:34 Std 
20.
August
17,9 C8,9 C
06:33
28,3 C
17:28
1020,9 hPa1018,9 hPa
17:28
1023,3 hPa
23:34
4,4 km/h
W-SW
18,6 km/h
15:03  
---
70 %37 %
17:28
96 %
08:28
46 klux81 klux
13:08
12:15 Std 
21.
August
21,3 C13,2 C
06:24
31,0 C
17:34
1022,3 hPa1019,6 hPa
17:34
1024,7 hPa
07:44
7,0 km/h
W-SW
28,5 km/h
16:44  
---
71 %42 %
18:44
94 %
08:24
46,8 klux94,9 klux
12:24
11:35 Std 
22.
August
20,9 C15,2 C
06:25
28,9 C
14:00
1016,7 hPa1012,3 hPa
19:20
1021,2 hPa
02:55
6,9 km/h
W-SW
28,9 km/h
12:30  
---
15 Minuten
77 %49 %
14:05
94 %
08:35
32,5 klux101,0 klux
13:55
4:55 Std 
23.
August
18,9 C17,1 C
23:52
21,2 C
12:21
1006,4 hPa1002,1 hPa
17:31
1012,6 hPa
00:36
12,3 km/h
W-SW
31,7 km/h
13:16  
9,4 l/m
5:56 Stunden
90 %80 %
00:01
96 %
19:16
15 klux99 klux
12:16
10 Min 
24.
August
17,0 C14,2 C
23:43
20,9 C
17:17
1009,4 hPa1005,6 hPa
04:12
1015,3 hPa
23:43
17,3 km/h
W
39,1 km/h
16:17  
---
71 %42 %
17:22
96 %
02:57
41 klux107 klux
13:07
8:00 Std 
25.
August
15,9 C11,5 C
06:43
21,4 C
16:23
1016,8 hPa1015,3 hPa
00:43
1018,4 hPa
09:33
15,9 km/h
W-SW
38,3 km/h
10:58  
---
15 Minuten
68 %48 %
16:28
82 %
23:54
44 klux104 klux
12:18
7:42 Std 
26.
August
18,8 C14,1 C
00:59
23,2 C
13:34
1010,6 hPa1005,5 hPa
23:10
1016,3 hPa
00:04
13,9 km/h
W-SW
44,8 km/h
11:04  
9,3 l/m
6:11 Stunden
80 %69 %
11:54
95 %
23:25
27 klux119 klux
11:49
1:45 Std 
27.
August
17,6 C13,2 C
23:41
21,8 C
13:55
1004,2 hPa1001,4 hPa
06:50
1010,3 hPa
23:41
17,4 km/h
W-SW
50,4 km/h
15:25  
14,1 l/m
7:45 Stunden
92 %75 %
13:45
98 %
03:05
25 klux104 klux
14:10
2:55 Std 
28.
August
12,6 C9,7 C
06:51
17,8 C
13:46
1016,2 hPa1010,2 hPa
00:01
1018,9 hPa
23:37
11,6 km/h
W
39,4 km/h
15:31  
0,9 l/m
2:00 Stunden
85 %57 %
13:26
97 %
06:16
30 klux95 klux
14:46
4:50 Std 
29.
August
11,8 C7,9 C
23:43
16,0 C
14:37
1014,1 hPa1007,8 hPa
23:43
1018,9 hPa
00:37
19,7 km/h
W-SW
51,1 km/h
15:37  
6,7 l/m
5:31 Stunden
86 %69 %
14:52
97 %
22:28
24,6 klux74,7 klux
10:57
2:10 Std 
30.
August
10,8 C7,6 C
00:43
14,3 C
16:03
1010,6 hPa1004,6 hPa
05:08
1018,8 hPa
23:59
17,9 km/h
NW
47,5 km/h
03:58  
8,4 l/m
4:55 Stunden
86 %66 %
12:33
99 %
08:48
24,5 klux98,6 klux
12:33
3:00 Std 
31.
August
12,7 C7,6 C
05:49
19,4 C
17:24
1021,7 hPa1018,8 hPa
00:04
1023,6 hPa
11:34
6,7 km/h
NW
28,6 km/h
14:09  
---
10 Minuten
80 %48 %
18:34
98 %
07:29
35,6 klux101,0 klux
14:04
7:36 Std 



August
2010

Temperatur

  

Luftdruck

  

Wind

  

Regen

  

Luftfeuchte

  

Helligkeit

Sonnen-
schein

Min

Max

Min

Max

Max

Max

Min

Max

Max

Max

16,8 C

7,6 C

00:43 Uhr
30.08.2010

31,0 C

17:34 Uhr
21.08.2010

1013,9 hPa

1001,4 hPa

06:50 Uhr
27.08.2010

1024,7 hPa

07:44 Uhr
21.08.2010

9,8 km/h

W-SW

51,1 km/h

15:37 Uhr
29.08.2010

23,4 l/m

5:50 Stunden
15.08.2010

79 %

31 %

18:21 Uhr
07.08.2010

99 %

08:51 Uhr
17.08.2010

30 klux

119,0 klux

11:49 Uhr
26.08.2010

12:15 Std

am
20.08.2010

Gesamt

Gesamt

105,5 l/m

19 Tage
64:13 h

146:03 Std


Wetter-Diagramme August 2010     Heinzenberg / Taunus   
TemperaturLuftfeuchte
SolarstrahlungLuftdruck
HelligkeitSonnenschein
RegenmengeRegendauer
Wind-GeschwindigkeitWind-Richtung